Regional Weather Roundup
Issued by NWS

Home | Current Version | Previous Version | Text Only | Print | Product List | Glossary Off
Versions: 1 2 3 4 5 6 7 8 9 10 11 12 13 14 15 16 17 18 19 20 21 22 23 24 25 26 27 28 29 30 31 32 33 34 35 36 37 38 39 40 41 42 43 44 45 46 47 48 49 50

626
ASUS44 KJAN 151210
RWRMS

MISSISSIPPI HOURLY WEATHER ROUNDUP
NATIONAL WEATHER SERVICE JACKSON MS
700 AM CDT TUE APR 15 2014

NOTE: "FAIR: INDICATES FEW OR NO CLOUDS BELOW 12,000 FEET WITH NO
SIGNIFICANT WEATHER AND/OR OBSTRUCTIONS TO VISIBILITY.

MSZ001>002-007>008-010>013-018>021-025>028-034>036-151300-
NORTHWEST MISSISSIPPI

CITY           SKY/WX    TMP DP  RH WIND       PRES   REMARKS
CLARKSDALE       N/A     37  28  70 N16G26    30.20R WCI  28
CLEVELAND      FAIR      38  32  78 N14       30.18R WCI  30
GREENWOOD      MOCLDY    40  30  67 N12G23    30.14R WCI  33
6HR MIN TEMP:  40; 6HR MAX TEMP:  45; 6HR PCP: TRACE;

GREENVILLE     PTCLDY    40  32  73 N12       30.18R WCI  33
6HR MIN TEMP:  39; 6HR MAX TEMP:  44;

GRENADA        FAIR      37  30  75 N14       30.15R WCI  29
OLIVE BRANCH   CLEAR     32  30  93 N9        30.14S WCI  24
OXFORD         FAIR      36  27  69 N10       30.15R WCI  28
TUNICA         SUNNY     36  30  80 N14       30.20R WCI  27
$$

MSZ003>006-009-014>017-022>024-029>033-037>039-151300-
NORTHEAST MISSISSIPPI

CITY           SKY/WX    TMP DP  RH WIND       PRES   REMARKS
BELMONT        CLOUDY    38  32  80 N6G20     30.05R WCI  33
COLUMBUS AFB   LGT RAIN  39  36  87 NW15      30.07R WCI  31
                                      6HR PCP:  0.02;

CORINTH        CLOUDY    37  30  75 N12       30.09R WCI  30
GOLDN TRIANGLE MOCLDY    39  32  75 N15G24    30.07R WCI  31
STARKVILLE     DRIZZLE   39  34  81 NW6       30.07R WCI  35
TUPELO         CLOUDY    40  31  70 N18G26    30.07R WCI  31
6HR MIN TEMP:  38; 6HR MAX TEMP:  43; 6HR PCP:  0.01;

$$

MSZ040-058-151300-
CENTRAL MISSISSIPPI

CITY           SKY/WX    TMP DP  RH WIND       PRES   REMARKS
JACKSON INTL   CLOUDY    42  32  67 N16G35    30.10R
6HR MIN TEMP:  42; 6HR MAX TEMP:  47; 6HR PCP:  0.02;

JACKSON HAWKNS CLOUDY    42  33  70 N9G18     30.11R
6HR MIN TEMP:  42; 6HR MAX TEMP:  47; 6HR PCP: TRACE;

MERIDIAN KEY   CLOUDY    41  37  86 NW14G28   30.04R
6HR MIN TEMP:  41; 6HR MAX TEMP:  50; 6HR PCP:  0.02;

MERIDIAN NAS   LGT RAIN  43  37  81 N16G23    30.04R
6HR MIN TEMP:  42; 6HR MAX TEMP:  50; 6HR PCP:  0.03;

RAYMOND        PTSUNNY   41  36  81 N7        30.14R
VICKSBURG      CLOUDY    45  34  65 NW12G17   30.17R
6HR MIN TEMP:  45; 6HR MAX TEMP:  48;

$$

MSZ059>079-151300-
SOUTH MISSISSIPPI

CITY           SKY/WX    TMP DP  RH WIND       PRES   REMARKS
BROOKHAVEN     PTSUNNY   41  37  87 N13G20    30.10R
COLUMBIA       CLOUDY    43  39  87 MISG      30.06R
HATTIESBURG    CLOUDY    45  39  79 NW20G31   30.04R
6HR MIN TEMP:  45; 6HR MAX TEMP:  52; 6HR PCP:  0.04;

MCCOMB         CLOUDY    43  37  79 N16G24    30.08R
6HR MIN TEMP:  42; 6HR MAX TEMP:  48; 6HR PCP: TRACE;

NATCHEZ        CLOUDY    43  30  61 N17G25    30.13R
6HR MIN TEMP:  43; 6HR MAX TEMP:  46; 6HR PCP:  0.01;

PINE BELT      CLOUDY    43  36  75 N14G21    30.04R
6HR MIN TEMP:  43; 6HR MAX TEMP:  50; 6HR PCP:  0.01;

$$

MSZ080>082-151300-
COASTAL MISSISSIPPI

CITY           SKY/WX    TMP DP  RH WIND       PRES   REMARKS
BAY ST LOUIS   CLOUDY    45  39  81 N23G31    30.01
BILOXI         CLOUDY    48  46  93 N20G29    29.97R
6HR MIN TEMP:  48; 6HR MAX TEMP:  65; 6HR PCP:  0.53;

PASCAGOULA     CLOUDY    48  46  93 NW12G28   29.94R
6HR MIN TEMP:  48; 6HR MAX TEMP:  65; 6HR PCP:  0.46;

GULFPORT       CLOUDY    50  44  80 NW17G29   29.97R
6HR MIN TEMP:  49; 6HR MAX TEMP:  67;

$$



USA.gov is the U.S. government's official web portal to all federal, state and local government web resources and services.